START_TIME,STEP,MOV.,M29,t_acc.,H22,t_acc.,H26,t_acc.,H30,t_acc.
1979-07-11 09:00:32.270 ,1,0,0.,24.0,0.,24.0,0.,24.0,0.,24.0
1979-07-11 09:00:56.270 ,1,0,0.,24.0,0.,24.0,0.,24.0,0.,24.0
1979-07-11 09:01:20.270 ,1,0,0.,24.0,0.,24.0,0.,24.0,0.,24.0
1979-07-11 09:01:44.270 ,2,1,0.,24.0,0.,24.0,0.,24.0,0.,24.0
1979-07-11 09:02:08.270 ,2,0,0.,24.0,0.,24.0,0.,24.0,0.,24.0
1979-07-11 09:02:32.270 ,2,0,0.,24.0,0.,24.0,0.,24.0,0.,24.0
1979-07-11 09:02:56.270 ,2,0,0.,24.0,0.,24.0,0.,24.0,0.,24.0
1979-07-11 09:03:20.270 ,2,0,0.,24.0,0.,24.0,0.,24.0,0.,24.0
1979-07-11 09:03:44.270 ,2,0,0.,24.0,0.,24.0,0.,24.0,0.,24.0
1979-07-11 09:04:08.270 ,3,1,0.,24.0,0.,24.0,0.,24.0,0.,24.0
1979-07-11 09:04:32.270 ,3,0,0.,24.0,0.,24.0,0.,24.0,0.,24.0
1979-07-11 09:04:56.270 ,3,0,0.,24.0,0.,24.0,0.,24.0,0.,24.0
1979-07-11 09:05:20.270 ,3,0,0.,24.0,0.,24.0,0.,24.0,0.,24.0
1979-07-11 09:05:44.270 ,3,0,0.,24.0,0.,24.0,0.,24.0,0.,24.0
1979-07-11 09:06:08.270 ,3,0,0.,24.0,0.,24.0,0.,24.0,0.,24.0
1979-07-11 09:06:32.270 ,4,1,0.,24.0,0.,24.0,0.,24.0,0.,24.0
1979-07-11 09:06:56.270 ,4,0,0.,24.0,0.,24.0,0.,24.0,0.,24.0
1979-07-11 09:07:20.270 ,4,0,0.,24.0,0.,24.0,0.,24.0,0.,24.0
1979-07-11 09:07:44.270 ,4,0,0.,24.0,0.,24.0,0.,24.0,0.,24.0
1979-07-11 09:08:08.270 ,4,0,0.,24.0,0.,24.0,0.,24.0,0.,24.0
1979-07-11 09:08:32.270 ,4,0,0.,24.0,0.,24.0,0.,24.0,0.,24.0
1979-07-11 09:08:56.270 ,5,1,0.,24.0,0.,24.0,0.,24.0,0.,24.0
1979-07-11 09:09:20.270 ,5,0,0.,24.0,0.,24.0,0.,24.0,0.,24.0
1979-07-11 09:09:44.270 ,5,0,0.,24.0,0.,24.0,0.,24.0,0.,24.0
1979-07-11 09:10:08.270 ,5,0,0.,24.0,0.,24.0,0.,24.0,0.,24.0
1979-07-11 09:10:32.270 ,5,0,0.,24.0,0.,24.0,0.,24.0,0.,24.0
1979-07-11 09:10:56.270 ,5,0,0.,24.0,0.,24.0,0.,24.0,0.,24.0
1979-07-11 09:11:20.270 ,6,1,0.,24.0,0.,24.0,0.,24.0,0.,24.0
1979-07-11 09:11:44.270 ,6,0,0.,24.0,0.,24.0,0.,24.0,0.,24.0
1979-07-11 09:12:08.270 ,6,0,0.,24.0,0.,24.0,0.,24.0,0.,24.0
1979-07-11 09:12:32.270 ,6,0,0.,24.0,0.,24.0,0.,24.0,0.,24.0
1979-07-11 09:12:56.270 ,6,0,0.,24.0,0.,24.0,0.,24.0,0.,24.0
1979-07-11 09:13:20.270 ,6,0,0.,24.0,0.,24.0,0.,24.0,0.,24.0
1979-07-11 09:13:44.270 ,7,1,0.,24.0,0.,24.0,0.,24.0,0.,24.0
1979-07-11 09:14:08.270 ,7,0,0.,24.0,0.,24.0,0.,24.0,0.,24.0
1979-07-11 09:14:32.270 ,7,0,0.,24.0,0.,24.0,0.,24.0,0.,24.0
1979-07-11 09:14:56.270 ,7,0,0.,24.0,0.,24.0,0.,24.0,0.,24.0
1979-07-11 09:15:20.270 ,7,0,0.,24.0,0.,24.0,0.,24.0,0.,24.0
1979-07-11 09:15:44.270 ,7,0,0.,24.0,0.,24.0,0.,24.0,0.,24.0
1979-07-11 09:16:08.270 ,7,1,0.,24.0,0.,24.0,0.,24.0,0.,24.0
1979-07-11 09:16:32.270 ,7,0,0.,24.0,0.,24.0,0.,24.0,0.,24.0
1979-07-11 09:16:56.270 ,7,0,0.,24.0,0.,24.0,0.,24.0,0.,24.0
1979-07-11 09:17:20.270 ,7,0,0.,24.0,0.,24.0,0.,24.0,0.,24.0
1979-07-11 09:17:44.270 ,7,0,0.,24.0,0.,24.0,0.,24.0,0.,24.0
1979-07-11 09:18:08.270 ,7,0,0.,24.0,0.,24.0,0.,24.0,0.,24.0
1979-07-11 09:18:32.270 ,6,1,0.,24.0,0.,24.0,0.,24.0,0.,24.0
1979-07-11 09:18:56.270 ,6,0,0.,24.0,0.,24.0,0.,24.0,0.,24.0
1979-07-11 09:19:20.270 ,6,0,0.,24.0,0.,24.0,0.,24.0,0.,24.0
1979-07-11 09:19:44.270 ,6,0,0.,24.0,0.,24.0,0.,24.0,0.,24.0
1979-07-11 09:20:08.270 ,6,0,0.,24.0,0.,24.0,0.,24.0,0.,24.0
1979-07-11 09:20:32.270 ,6,0,0.,24.0,0.,24.0,0.,24.0,0.,24.0
1979-07-11 09:20:56.270 ,5,1,0.,24.0,0.,24.0,0.,24.0,0.,24.0
1979-07-11 09:21:20.270 ,5,0,0.,24.0,0.,24.0,0.,24.0,0.,24.0
1979-07-11 09:21:44.270 ,5,0,0.,24.0,0.,24.0,0.,24.0,0.,24.0
1979-07-11 09:22:08.270 ,5,0,0.,24.0,0.,24.0,0.,24.0,0.,24.0
1979-07-11 09:22:32.270 ,5,0,0.,24.0,0.,24.0,0.,24.0,0.,24.0
1979-07-11 09:22:56.270 ,5,0,0.,24.0,0.,24.0,0.,24.0,0.,24.0
1979-07-11 09:23:20.270 ,4,1,0.,24.0,0.,24.0,0.,24.0,0.,24.0
1979-07-11 09:23:44.270 ,4,0,0.,24.0,0.,24.0,0.,24.0,0.,24.0
1979-07-11 09:24:08.270 ,4,0,0.,24.0,0.,24.0,0.,24.0,0.,24.0
1979-07-11 09:24:32.270 ,4,0,0.,24.0,0.,24.0,0.,24.0,0.,24.0
1979-07-11 09:24:56.270 ,4,0,0.,24.0,0.,24.0,0.,24.0,0.,24.0
1979-07-11 09:25:20.270 ,4,0,0.,24.0,0.,24.0,0.,24.0,0.,24.0
1979-07-11 09:25:44.270 ,3,1,0.,24.0,0.,24.0,0.,24.0,0.,24.0
1979-07-11 09:26:08.270 ,3,0,0.,24.0,0.,24.0,0.,24.0,0.,24.0
1979-07-11 09:26:32.270 ,0,0,0.,24.0,0.,24.0,0.,24.0,0.,24.0
1979-07-11 09:26:56.270 ,0,0,0.,24.0,0.,24.0,0.,24.0,0.,24.0
1979-07-11 09:27:20.270 ,0,0,0.,24.0,0.,24.0,0.,24.0,0.,24.0
1979-07-11 09:27:44.270 ,0,0,0.,24.0,0.,24.0,0.,24.0,0.,24.0
1979-07-11 09:28:08.270 ,2,1,0.,24.0,0.,24.0,0.,24.0,0.,24.0
1979-07-11 09:28:32.270 ,2,0,0.,24.0,0.,24.0,0.,24.0,0.,24.0
1979-07-11 09:28:56.270 ,2,0,0.,24.0,0.,24.0,0.,24.0,0.,24.0
1979-07-11 09:29:20.270 ,2,0,0.,24.0,0.,24.0,0.,24.0,0.,24.0
1979-07-11 09:29:44.270 ,2,0,0.,24.0,0.,24.0,0.,24.0,0.,24.0
1979-07-11 09:30:08.270 ,2,0,0.,24.0,0.,24.0,0.,24.0,0.,24.0
1979-07-11 09:30:32.270 ,1,1,0.,24.0,0.,24.0,0.,24.0,0.,24.0
1979-07-11 09:30:56.270 ,1,0,0.,24.0,0.,24.0,0.,24.0,0.,24.0
1979-07-11 09:31:20.270 ,1,0,0.,24.0,0.,24.0,0.,24.0,0.,24.0
1979-07-11 09:31:44.270 ,1,0,0.,24.0,0.,24.0,0.,24.0,0.,24.0
1979-07-11 09:32:08.270 ,1,0,0.,24.0,0.,24.0,0.,24.0,0.,24.0
1979-07-11 09:32:32.270 ,1,0,0.,24.0,0.,24.0,0.,24.0,0.,24.0
1979-07-11 09:32:56.270 ,0,1,0.,24.0,0.,24.0,0.,24.0,0.,24.0
1979-07-11 09:33:20.270 ,0,0,0.,24.0,0.,24.0,0.,24.0,0.,24.0
1979-07-11 09:33:44.270 ,0,0,0.,24.0,0.,24.0,0.,24.0,0.,24.0
1979-07-11 09:34:08.270 ,0,0,0.,24.0,0.,24.0,0.,24.0,0.,24.0
1979-07-11 09:34:32.270 ,0,0,0.,24.0,0.,24.0,0.,24.0,0.,24.0
1979-07-11 09:34:56.270 ,0,0,0.,24.0,0.,24.0,0.,24.0,0.,24.0
1979-07-11 09:35:20.270 ,0,1,0.,24.0,0.,24.0,0.,24.0,0.,24.0
1979-07-11 09:35:44.270 ,0,0,0.,24.0,0.,24.0,0.,24.0,0.,24.0
1979-07-11 09:36:08.270 ,0,0,0.,24.0,0.,24.0,0.,24.0,0.,24.0
1979-07-11 09:36:32.270 ,0,0,0.,24.0,0.,24.0,0.,24.0,0.,24.0
1979-07-11 09:36:56.270 ,0,0,0.,24.0,0.,24.0,0.,24.0,0.,24.0
1979-07-11 09:37:20.270 ,0,0,0.,24.0,0.,24.0,0.,24.0,0.,24.0
1979-07-11 09:37:44.270 ,1,1,0.,24.0,0.,24.0,0.,24.0,0.,24.0
1979-07-11 09:38:08.270 ,1,0,0.,24.0,0.,24.0,0.,24.0,0.,24.0
1979-07-11 09:38:32.270 ,1,0,0.,24.0,0.,24.0,0.,24.0,0.,24.0
1979-07-11 09:38:56.270 ,1,0,0.,24.0,0.,24.0,0.,24.0,0.,24.0
1979-07-11 09:39:20.270 ,1,0,0.,24.0,0.,24.0,0.,24.0,0.,24.0
1979-07-11 09:39:44.270 ,1,0,0.,24.0,0.,24.0,0.,24.0,0.,24.0
1979-07-11 09:40:08.270 ,2,1,0.,24.0,0.,24.0,0.,24.0,0.,24.0
1979-07-11 09:40:32.270 ,2,0,0.,24.0,0.,24.0,0.,24.0,0.,24.0
1979-07-11 09:40:56.270 ,2,0,0.,24.0,0.,24.0,0.,24.0,0.,24.0
1979-07-11 09:41:20.270 ,2,0,0.,24.0,0.,24.0,0.,24.0,0.,24.0
1979-07-11 09:41:44.270 ,2,0,0.,24.0,0.,24.0,0.,24.0,0.,24.0
1979-07-11 09:42:08.270 ,2,0,0.,24.0,0.,24.0,0.,24.0,0.,24.0
1979-07-11 09:42:32.270 ,3,1,0.,24.0,0.,24.0,0.,24.0,0.,24.0
1979-07-11 09:42:56.270 ,3,0,0.,24.0,0.,24.0,0.,24.0,0.,24.0
1979-07-11 09:43:20.270 ,3,0,0.,24.0,0.,24.0,0.,24.0,0.,24.0
1979-07-11 09:43:44.270 ,3,0,0.,24.0,0.,24.0,0.,24.0,0.,24.0
1979-07-11 09:44:08.270 ,3,0,0.,24.0,0.,24.0,0.,24.0,0.,24.0
1979-07-11 09:44:32.270 ,3,0,0.,24.0,0.,24.0,0.,24.0,0.,24.0
1979-07-11 09:44:56.270 ,4,1,0.,24.0,0.,24.0,0.,24.0,0.,24.0
1979-07-11 09:45:20.270 ,4,0,0.,24.0,0.,24.0,0.,24.0,0.,24.0
1979-07-11 09:45:44.270 ,4,0,0.,24.0,0.,24.0,0.,24.0,0.,24.0
1979-07-11 09:46:08.270 ,4,0,0.,24.0,0.,24.0,0.,24.0,0.,24.0
1979-07-11 09:46:32.270 ,4,0,0.,24.0,0.,24.0,0.,24.0,0.,24.0
1979-07-11 09:46:56.270 ,4,0,0.,24.0,0.,24.0,0.,24.0,0.,24.0
1979-07-11 09:47:20.270 ,5,1,0.,24.0,0.,24.0,0.,24.0,0.,24.0
1979-07-11 09:47:44.270 ,5,0,0.,24.0,0.,24.0,0.,24.0,0.,24.0
1979-07-11 09:48:08.270 ,5,0,0.,24.0,0.,24.0,0.,24.0,0.,24.0
1979-07-11 09:48:32.270 ,5,0,0.,24.0,0.,24.0,0.,24.0,0.,24.0
1979-07-11 09:48:56.270 ,5,0,0.,24.0,0.,24.0,0.,24.0,0.,24.0
1979-07-11 09:49:20.270 ,5,0,0.,24.0,0.,24.0,0.,24.0,0.,24.0
1979-07-11 09:49:44.270 ,6,1,0.,24.0,0.,24.0,0.,24.0,0.,24.0
1979-07-11 09:50:08.270 ,6,0,0.,24.0,0.,24.0,0.,24.0,0.,24.0
1979-07-11 09:50:32.270 ,6,0,0.,24.0,0.,24.0,0.,24.0,0.,24.0
1979-07-11 09:50:56.270 ,6,0,0.,24.0,0.,24.0,0.,24.0,0.,24.0
1979-07-11 09:51:20.270 ,6,0,0.,24.0,0.,24.0,0.,24.0,0.,24.0
1979-07-11 09:51:44.270 ,6,0,0.,24.0,0.,24.0,0.,24.0,0.,24.0
1979-07-11 09:52:08.270 ,7,1,0.,24.0,0.,24.0,0.,24.0,0.,24.0
1979-07-11 09:52:32.270 ,7,0,0.,24.0,0.,24.0,0.,24.0,0.,24.0
1979-07-11 09:52:56.270 ,7,0,0.,24.0,0.,24.0,0.,24.0,0.,24.0
1979-07-11 09:53:20.270 ,7,0,0.,24.0,0.,24.0,0.,24.0,0.,24.0
1979-07-11 09:53:44.270 ,7,0,0.,24.0,0.,24.0,0.,24.0,0.,24.0
1979-07-11 09:54:08.270 ,7,0,0.,24.0,0.,24.0,0.,24.0,0.,24.0
1979-07-11 09:54:32.270 ,7,1,0.,24.0,0.,24.0,0.,24.0,0.,24.0
1979-07-11 09:54:56.270 ,7,0,0.,24.0,0.,24.0,0.,24.0,0.,24.0
1979-07-11 09:55:20.270 ,7,0,0.,24.0,0.,24.0,0.,24.0,0.,24.0
1979-07-11 09:55:44.270 ,7,0,0.,24.0,0.,24.0,0.,24.0,0.,24.0
1979-07-11 09:56:08.270 ,7,0,0.,24.0,0.,24.0,0.,24.0,0.,24.0
1979-07-11 09:56:32.270 ,7,0,0.,24.0,0.,24.0,0.,24.0,0.,24.0
1979-07-11 09:56:56.270 ,6,1,0.,24.0,0.,24.0,0.,24.0,0.,24.0
1979-07-11 09:57:20.270 ,6,0,0.,24.0,0.,24.0,0.,24.0,0.,24.0
1979-07-11 09:57:44.270 ,6,0,0.,24.0,0.,24.0,0.,24.0,0.,24.0
1979-07-11 09:58:08.270 ,6,0,0.,24.0,0.,24.0,0.,24.0,0.,24.0
1979-07-11 09:58:32.270 ,6,0,0.,24.0,0.,24.0,0.,24.0,0.,24.0
1979-07-11 09:58:56.270 ,6,0,0.,24.0,0.,24.0,0.,24.0,0.,24.0
1979-07-11 09:59:20.270 ,5,1,0.,24.0,0.,24.0,0.,24.0,0.,24.0
1979-07-11 09:59:44.270 ,5,0,0.,24.0,0.,24.0,0.,24.0,0.,24.0
1979-07-11 10:00:08.270 ,5,0,0.,24.0,0.,24.0,0.,24.0,0.,24.0
1979-07-11 10:00:32.270 ,5,0,0.,24.0,0.,24.0,0.,24.0,0.,24.0
1979-07-11 10:00:56.270 ,5,0,0.,24.0,0.,24.0,0.,24.0,0.,24.0
1979-07-11 10:01:20.270 ,5,0,0.,24.0,0.,24.0,0.,24.0,0.,24.0
1979-07-11 10:01:44.270 ,4,1,0.,24.0,0.,24.0,0.,24.0,0.,24.0
1979-07-11 10:02:08.270 ,4,0,0.,24.0,0.,24.0,0.,24.0,0.,24.0
1979-07-11 10:02:32.270 ,4,0,0.,24.0,0.,24.0,0.,24.0,0.,24.0
1979-07-11 10:02:56.270 ,4,0,0.,24.0,0.,24.0,0.,24.0,0.,24.0
1979-07-11 10:03:20.270 ,4,0,0.,24.0,0.,24.0,0.,24.0,0.,24.0
1979-07-11 10:03:44.270 ,4,0,0.,24.0,0.,24.0,0.,24.0,0.,24.0
1979-07-11 10:04:08.270 ,3,1,0.,24.0,0.,24.0,0.,24.0,0.,24.0
1979-07-11 10:04:32.270 ,3,0,0.,24.0,0.,24.0,0.,24.0,0.,24.0
1979-07-11 10:04:56.270 ,3,0,0.,24.0,0.,24.0,0.,24.0,0.,24.0
1979-07-11 10:05:20.270 ,3,0,0.,24.0,0.,24.0,0.,24.0,0.,24.0
1979-07-11 10:05:44.270 ,3,0,0.,24.0,0.,24.0,0.,24.0,0.,24.0
1979-07-11 10:06:08.270 ,3,0,0.,24.0,0.,24.0,0.,24.0,0.,24.0
1979-07-11 10:06:32.270 ,2,1,0.,24.0,0.,24.0,0.,24.0,0.,24.0
1979-07-11 10:06:56.270 ,2,0,0.,24.0,0.,24.0,0.,24.0,0.,24.0
1979-07-11 10:07:20.270 ,2,0,0.,24.0,0.,24.0,0.,24.0,0.,24.0
1979-07-11 10:07:44.270 ,2,0,0.,24.0,0.,24.0,0.,24.0,0.,24.0
1979-07-11 10:08:08.270 ,2,0,0.,24.0,0.,24.0,0.,24.0,0.,24.0
1979-07-11 10:08:32.270 ,2,0,0.,24.0,0.,24.0,0.,24.0,0.,24.0
1979-07-11 10:08:56.270 ,1,1,0.,24.0,0.,24.0,0.,24.0,0.,24.0
1979-07-11 10:09:20.270 ,1,0,0.,24.0,0.,24.0,0.,24.0,0.,24.0
1979-07-11 10:09:44.270 ,1,0,0.,24.0,0.,24.0,0.,24.0,0.,24.0
1979-07-11 10:10:08.270 ,1,0,0.,24.0,0.,24.0,0.,24.0,0.,24.0
1979-07-11 10:10:32.270 ,1,0,0.,24.0,0.,24.0,0.,24.0,0.,24.0
1979-07-11 10:10:56.270 ,1,0,0.,24.0,0.,24.0,0.,24.0,0.,24.0
1979-07-11 10:11:20.270 ,0,1,0.,24.0,0.,24.0,0.,24.0,0.,24.0
1979-07-11 10:11:44.270 ,0,0,0.,24.0,0.,24.0,0.,24.0,0.,24.0
1979-07-11 10:12:08.270 ,0,0,0.,24.0,0.,24.0,0.,24.0,0.,24.0
1979-07-11 10:12:32.270 ,0,0,0.,24.0,0.,24.0,0.,24.0,0.,24.0
1979-07-11 10:12:56.270 ,0,0,0.,24.0,0.,24.0,0.,24.0,0.,24.0
1979-07-11 10:13:20.270 ,0,0,0.,24.0,0.,24.0,0.,24.0,0.,24.0
1979-07-11 10:13:44.270 ,0,1,0.,24.0,0.,24.0,0.,24.0,0.,24.0
1979-07-11 10:14:08.270 ,0,0,0.,24.0,0.,24.0,0.,24.0,0.,24.0
1979-07-11 10:14:32.270 ,0,0,0.,24.0,0.,24.0,0.,24.0,0.,24.0
1979-07-11 10:14:56.270 ,0,0,0.,24.0,0.,24.0,0.,24.0,0.,24.0
1979-07-11 10:15:20.270 ,0,0,0.,24.0,0.,24.0,0.,24.0,0.,24.0
1979-07-11 10:15:44.270 ,0,0,0.,24.0,0.,24.0,0.,24.0,0.,24.0
1979-07-11 10:16:08.270 ,1,1,0.,24.0,0.,24.0,0.,24.0,0.,24.0
1979-07-11 10:16:32.270 ,1,0,0.,24.0,0.,24.0,0.,24.0,0.,24.0
1979-07-11 10:16:56.270 ,1,0,0.,24.0,0.,24.0,0.,24.0,0.,24.0
1979-07-11 10:17:20.270 ,1,0,0.,24.0,0.,24.0,0.,24.0,0.,24.0
1979-07-11 10:17:44.270 ,1,0,0.,24.0,0.,24.0,0.,24.0,0.,24.0
1979-07-11 10:18:08.270 ,1,0,0.,24.0,0.,24.0,0.,24.0,0.,24.0
1979-07-11 10:18:32.270 ,2,1,0.,24.0,0.,24.0,0.,24.0,0.,24.0
1979-07-11 10:18:56.270 ,2,0,0.,24.0,0.,24.0,0.,24.0,0.,24.0
1979-07-11 10:19:20.270 ,2,0,0.,24.0,0.,24.0,0.,24.0,0.,24.0
1979-07-11 10:19:44.270 ,2,0,0.,24.0,0.,24.0,0.,24.0,0.,24.0
1979-07-11 10:20:08.270 ,2,0,0.,24.0,0.,24.0,0.,24.0,0.,24.0
1979-07-11 10:20:32.270 ,2,0,0.,24.0,0.,24.0,0.,24.0,0.,24.0
1979-07-11 10:20:56.270 ,3,1,0.,24.0,0.,24.0,0.,24.0,0.,24.0
1979-07-11 10:21:20.270 ,3,0,0.,24.0,0.,24.0,0.,24.0,0.,24.0
1979-07-11 10:21:44.270 ,3,0,0.,24.0,0.,24.0,0.,24.0,0.,24.0
1979-07-11 10:22:08.270 ,3,0,0.,24.0,0.,24.0,0.,24.0,0.,24.0
1979-07-11 10:22:32.270 ,3,0,0.,24.0,0.,24.0,0.,24.0,0.,24.0
1979-07-11 10:22:56.270 ,3,0,0.,24.0,0.,24.0,0.,24.0,0.,24.0
1979-07-11 10:23:20.270 ,4,1,0.,24.0,0.,24.0,0.,24.0,0.,24.0
1979-07-11 10:23:44.270 ,4,0,0.,24.0,0.,24.0,0.,24.0,0.,24.0
1979-07-11 10:24:08.270 ,4,0,0.,24.0,0.,24.0,0.,24.0,0.,24.0
1979-07-11 10:24:32.270 ,4,0,0.,24.0,0.,24.0,0.,24.0,0.,24.0
1979-07-11 10:24:56.270 ,4,0,0.,24.0,0.,24.0,0.,24.0,0.,24.0
1979-07-11 10:25:20.270 ,4,0,0.,24.0,0.,24.0,0.,24.0,0.,24.0
1979-07-11 10:25:44.270 ,5,1,0.,24.0,0.,24.0,0.,24.0,0.,24.0
1979-07-11 10:26:08.270 ,5,0,0.,24.0,0.,24.0,0.,24.0,0.,24.0
1979-07-11 10:26:32.270 ,5,0,0.,24.0,0.,24.0,0.,24.0,0.,24.0
1979-07-11 10:26:56.270 ,5,0,0.,24.0,0.,24.0,0.,24.0,0.,24.0
1979-07-11 10:27:20.270 ,5,0,0.,24.0,0.,24.0,0.,24.0,0.,24.0
1979-07-11 10:27:44.270 ,5,0,0.,24.0,0.,24.0,0.,24.0,0.,24.0
1979-07-11 10:28:08.270 ,6,1,0.,24.0,0.,24.0,0.,24.0,0.,24.0
1979-07-11 10:28:32.270 ,6,0,0.,24.0,0.,24.0,0.,24.0,0.,24.0
1979-07-11 10:28:56.270 ,6,0,0.,24.0,0.,24.0,0.,24.0,0.,24.0
1979-07-11 10:29:20.270 ,6,0,0.,24.0,0.,24.0,0.,24.0,0.,24.0
1979-07-11 10:29:44.270 ,6,0,0.,24.0,0.,24.0,0.,24.0,0.,24.0
1979-07-11 10:30:08.270 ,6,0,0.,24.0,0.,24.0,0.,24.0,0.,24.0
1979-07-11 10:30:32.270 ,7,1,0.,24.0,0.,24.0,0.,24.0,0.,24.0
1979-07-11 10:30:56.270 ,7,0,0.,24.0,0.,24.0,0.,24.0,0.,24.0
1979-07-11 10:31:20.270 ,7,0,0.,24.0,0.,24.0,0.,24.0,0.,24.0
1979-07-11 10:31:44.270 ,7,0,0.,24.0,0.,24.0,0.,24.0,0.,24.0
1979-07-11 10:32:08.270 ,7,0,0.,24.0,0.,24.0,0.,24.0,0.,24.0
1979-07-11 10:32:32.270 ,7,0,0.,24.0,0.,24.0,0.,24.0,0.,24.0
1979-07-11 10:32:56.270 ,7,1,0.,24.0,0.,24.0,0.,24.0,0.,24.0
1979-07-11 10:33:20.270 ,7,0,0.,24.0,0.,24.0,0.,24.0,0.,24.0
1979-07-11 10:33:44.270 ,7,0,0.,24.0,0.,24.0,0.,24.0,0.,24.0
1979-07-11 10:34:08.260 ,7,0,0.,24.0,0.,24.0,0.,24.0,0.,24.0
1979-07-11 10:34:32.260 ,7,0,0.,24.0,0.,24.0,0.,24.0,0.,24.0
1979-07-11 10:34:56.260 ,7,0,0.,24.0,0.,24.0,0.,24.0,0.,24.0
1979-07-11 10:35:20.260 ,6,1,0.,24.0,0.,24.0,0.,24.0,0.,24.0
1979-07-11 10:35:44.260 ,6,0,0.,24.0,0.,24.0,0.,24.0,0.,24.0
1979-07-11 10:36:08.260 ,6,0,0.,24.0,0.,24.0,0.,24.0,0.,24.0
1979-07-11 10:36:32.260 ,6,0,0.,24.0,0.,24.0,0.,24.0,0.,24.0
1979-07-11 10:36:56.260 ,6,0,0.,24.0,0.,24.0,0.,24.0,0.,24.0
1979-07-11 10:37:20.260 ,6,0,0.,24.0,0.,24.0,0.,24.0,0.,24.0
1979-07-11 10:37:44.260 ,5,1,0.,24.0,0.,24.0,0.,24.0,0.,24.0
1979-07-11 10:38:08.260 ,5,0,0.,24.0,0.,24.0,0.,24.0,0.,24.0
1979-07-11 10:38:32.260 ,5,0,0.,24.0,0.,24.0,0.,24.0,0.,24.0
1979-07-11 10:38:56.260 ,5,0,0.,24.0,0.,24.0,0.,24.0,0.,24.0
1979-07-11 10:39:20.260 ,5,0,0.,24.0,0.,24.0,0.,24.0,0.,24.0
1979-07-11 10:39:44.260 ,5,0,0.,24.0,0.,24.0,0.,24.0,0.,24.0
1979-07-11 10:40:08.260 ,4,1,0.,24.0,0.,24.0,0.,24.0,0.,24.0
1979-07-11 10:40:32.260 ,4,0,0.,24.0,0.,24.0,0.,24.0,0.,24.0
1979-07-11 10:40:56.260 ,4,0,0.,24.0,0.,24.0,0.,24.0,0.,24.0
1979-07-11 10:41:20.260 ,4,0,0.,24.0,0.,24.0,0.,24.0,0.,24.0
1979-07-11 10:41:44.260 ,4,0,0.,24.0,0.,24.0,0.,24.0,0.,24.0
1979-07-11 10:42:08.260 ,4,0,0.,24.0,0.,24.0,0.,24.0,0.,24.0
1979-07-11 10:42:32.260 ,3,1,0.,24.0,0.,24.0,0.,24.0,0.,24.0
1979-07-11 10:42:56.260 ,3,0,0.,24.0,0.,24.0,0.,24.0,0.,24.0
1979-07-11 10:43:20.260 ,3,0,0.,24.0,0.,24.0,0.,24.0,0.,24.0
1979-07-11 10:43:44.260 ,3,0,0.,24.0,0.,24.0,0.,24.0,0.,24.0
1979-07-11 10:44:08.260 ,3,0,0.,24.0,0.,24.0,0.,24.0,0.,24.0
1979-07-11 10:44:32.260 ,3,0,0.,24.0,0.,24.0,0.,24.0,0.,24.0
1979-07-11 10:44:56.260 ,2,1,0.,24.0,0.,24.0,0.,24.0,0.,24.0
1979-07-11 10:45:20.260 ,2,0,0.,24.0,0.,24.0,0.,24.0,0.,24.0
1979-07-11 10:45:44.260 ,2,0,0.,24.0,0.,24.0,0.,24.0,0.,24.0
1979-07-11 10:46:08.260 ,2,0,0.,24.0,0.,24.0,0.,24.0,0.,24.0
1979-07-11 10:46:32.260 ,2,0,0.,24.0,0.,24.0,0.,24.0,0.,24.0
1979-07-11 10:46:56.260 ,2,0,0.,24.0,0.,24.0,0.,24.0,0.,24.0
1979-07-11 10:47:20.260 ,1,1,0.,24.0,0.,24.0,0.,24.0,0.,24.0
1979-07-11 10:47:44.260 ,1,0,0.,24.0,0.,24.0,0.,24.0,0.,24.0
1979-07-11 10:48:08.260 ,1,0,0.,24.0,0.,24.0,0.,24.0,0.,24.0
1979-07-11 10:48:32.260 ,1,0,0.,24.0,0.,24.0,0.,24.0,0.,24.0
1979-07-11 10:48:56.260 ,1,0,0.,24.0,0.,24.0,0.,24.0,0.,24.0
1979-07-11 10:49:20.260 ,1,0,0.,24.0,0.,24.0,0.,24.0,0.,24.0
1979-07-11 10:49:44.260 ,0,1,0.,24.0,0.,24.0,0.,24.0,0.,24.0
1979-07-11 10:50:08.260 ,0,0,0.,24.0,0.,24.0,0.,24.0,0.,24.0
1979-07-11 10:50:32.260 ,0,0,0.,24.0,0.,24.0,0.,24.0,0.,24.0
1979-07-11 10:50:56.260 ,0,0,0.,24.0,0.,24.0,0.,24.0,0.,24.0
1979-07-11 10:51:20.260 ,0,0,0.,24.0,0.,24.0,0.,24.0,0.,24.0
1979-07-11 10:51:44.260 ,0,0,0.,24.0,0.,24.0,0.,24.0,0.,24.0
1979-07-11 10:52:08.260 ,0,1,0.,24.0,0.,24.0,0.,24.0,0.,24.0
1979-07-11 10:52:32.260 ,0,0,0.,24.0,0.,24.0,0.,24.0,0.,24.0
1979-07-11 10:52:56.260 ,0,0,0.,24.0,0.,24.0,0.,24.0,0.,24.0
1979-07-11 10:53:20.260 ,0,0,0.,24.0,0.,24.0,0.,24.0,0.,24.0
1979-07-11 10:53:44.260 ,0,0,0.,24.0,0.,24.0,0.,24.0,0.,24.0
1979-07-11 10:54:08.260 ,0,0,0.,24.0,0.,24.0,0.,24.0,0.,24.0
1979-07-11 10:54:32.260 ,1,1,0.,24.0,0.,24.0,0.,24.0,0.,24.0
1979-07-11 10:54:56.260 ,1,0,0.,24.0,0.,24.0,0.,24.0,0.,24.0
1979-07-11 10:55:20.260 ,1,0,0.,24.0,0.,24.0,0.,24.0,0.,24.0
1979-07-11 10:55:44.260 ,1,0,0.,24.0,0.,24.0,0.,24.0,0.,24.0
1979-07-11 10:56:08.260 ,1,0,0.,24.0,0.,24.0,0.,24.0,0.,24.0
1979-07-11 10:56:32.260 ,1,0,0.,24.0,0.,24.0,0.,24.0,0.,24.0
1979-07-11 10:56:56.260 ,2,1,0.,24.0,0.,24.0,0.,24.0,0.,24.0
1979-07-11 10:57:20.260 ,2,0,0.,24.0,0.,24.0,0.,24.0,0.,24.0
1979-07-11 10:57:44.260 ,2,0,0.,24.0,0.,24.0,0.,24.0,0.,24.0
1979-07-11 10:58:08.260 ,2,0,0.,24.0,0.,24.0,0.,24.0,0.,24.0
1979-07-11 10:58:32.260 ,2,0,0.,24.0,0.,24.0,0.,24.0,0.,24.0
1979-07-11 10:58:56.260 ,2,0,0.,24.0,0.,24.0,0.,24.0,0.,24.0
1979-07-11 10:59:20.260 ,3,1,0.,24.0,0.,24.0,0.,24.0,0.,24.0
1979-07-11 10:59:44.260 ,3,0,0.,24.0,0.,24.0,0.,24.0,0.,24.0
1979-07-11 11:00:08.260 ,3,0,0.,24.0,0.,24.0,0.,24.0,0.,24.0
1979-07-11 11:00:32.260 ,3,0,0.,24.0,0.,24.0,0.,24.0,0.,24.0
1979-07-11 11:00:56.260 ,3,0,0.,24.0,0.,24.0,0.,24.0,0.,24.0
1979-07-11 11:01:20.260 ,3,0,0.,24.0,0.,24.0,0.,24.0,0.,24.0
1979-07-11 11:01:44.260 ,4,1,0.,24.0,0.,24.0,0.,24.0,0.,24.0
1979-07-11 11:02:08.260 ,4,0,0.,24.0,0.,24.0,0.,24.0,0.,24.0
1979-07-11 11:02:32.260 ,4,0,0.,24.0,0.,24.0,0.,24.0,0.,24.0
1979-07-11 11:02:56.260 ,4,0,0.,24.0,0.,24.0,0.,24.0,0.,24.0
1979-07-11 11:03:20.260 ,4,0,0.,24.0,0.,24.0,0.,24.0,0.,24.0
1979-07-11 11:03:44.260 ,4,0,0.,24.0,0.,24.0,0.,24.0,0.,24.0
1979-07-11 11:04:08.260 ,5,1,0.,24.0,0.,24.0,0.,24.0,0.,24.0
1979-07-11 11:04:32.260 ,5,0,0.,24.0,0.,24.0,0.,24.0,0.,24.0
1979-07-11 11:04:56.260 ,5,0,0.,24.0,0.,24.0,0.,24.0,0.,24.0
1979-07-11 11:05:20.260 ,5,0,0.,24.0,0.,24.0,0.,24.0,0.,24.0
1979-07-11 11:05:44.260 ,5,0,0.,24.0,0.,24.0,0.,24.0,0.,24.0
1979-07-11 11:06:08.260 ,5,0,0.,24.0,0.,24.0,0.,24.0,0.,24.0
1979-07-11 11:06:32.260 ,6,1,0.,24.0,0.,24.0,0.,24.0,0.,24.0
1979-07-11 11:06:56.260 ,6,0,0.,24.0,0.,24.0,0.,24.0,0.,24.0
1979-07-11 11:07:20.260 ,6,0,0.,24.0,0.,24.0,0.,24.0,0.,24.0
1979-07-11 11:07:44.260 ,6,0,0.,24.0,0.,24.0,0.,24.0,0.,24.0
1979-07-11 11:08:08.260 ,6,0,0.,24.0,0.,24.0,0.,24.0,0.,24.0
1979-07-11 11:08:32.260 ,6,0,0.,24.0,0.,24.0,0.,24.0,0.,24.0
1979-07-11 11:08:56.260 ,7,1,0.,24.0,0.,24.0,0.,24.0,0.,24.0
1979-07-11 11:09:20.260 ,7,0,0.,24.0,0.,24.0,0.,24.0,0.,24.0
1979-07-11 11:09:44.260 ,7,0,0.,24.0,0.,24.0,0.,24.0,0.,24.0
1979-07-11 11:10:08.260 ,7,0,0.,24.0,0.,24.0,0.,24.0,0.,24.0
1979-07-11 11:10:32.260 ,7,0,0.,24.0,0.,24.0,0.,24.0,0.,24.0
1979-07-11 11:11:20.260 ,7,1,0.,24.0,0.,24.0,0.,24.0,0.,24.0
1979-07-11 11:11:44.260 ,7,0,0.,24.0,0.,24.0,0.,24.0,0.,24.0
1979-07-11 11:12:08.260 ,7,0,0.,24.0,0.,24.0,0.,24.0,0.,24.0
1979-07-11 11:12:32.260 ,7,0,0.,24.0,0.,24.0,0.,24.0,0.,24.0
1979-07-11 11:12:56.260 ,7,0,0.,24.0,0.,24.0,0.,24.0,0.,24.0
1979-07-11 11:13:20.260 ,7,0,0.,24.0,0.,24.0,0.,24.0,0.,24.0
1979-07-11 11:13:44.260 ,6,1,0.,24.0,0.,24.0,0.,24.0,0.,24.0
1979-07-11 11:14:08.260 ,6,0,0.,24.0,0.,24.0,0.,24.0,0.,24.0
1979-07-11 11:14:32.260 ,6,0,0.,24.0,0.,24.0,0.,24.0,0.,24.0
1979-07-11 11:14:56.260 ,6,0,0.,24.0,0.,24.0,0.,24.0,0.,24.0
1979-07-11 11:15:20.260 ,6,0,0.,24.0,0.,24.0,0.,24.0,0.,24.0
1979-07-11 11:15:44.260 ,6,0,0.,24.0,0.,24.0,0.,24.0,0.,24.0
1979-07-11 11:16:08.260 ,5,1,0.,24.0,0.,24.0,0.,24.0,0.,24.0
1979-07-11 11:16:32.260 ,5,0,0.,24.0,0.,24.0,0.,24.0,0.,24.0
1979-07-11 11:16:56.260 ,5,0,0.,24.0,0.,24.0,0.,24.0,0.,24.0
1979-07-11 11:17:20.260 ,5,0,0.,24.0,0.,24.0,0.,24.0,0.,24.0
1979-07-11 11:17:44.260 ,5,0,0.,24.0,0.,24.0,0.,24.0,0.,24.0
1979-07-11 11:18:08.260 ,5,0,0.,24.0,0.,24.0,0.,24.0,0.,24.0
1979-07-11 11:18:32.260 ,4,1,0.,24.0,0.,24.0,0.,24.0,0.,24.0
1979-07-11 11:18:56.260 ,4,0,0.,24.0,0.,24.0,0.,24.0,0.,24.0
1979-07-11 11:19:20.260 ,4,0,0.,24.0,0.,24.0,0.,24.0,0.,24.0
1979-07-11 11:19:44.260 ,4,0,0.,24.0,0.,24.0,0.,24.0,0.,24.0
1979-07-11 11:20:08.260 ,4,0,0.,24.0,0.,24.0,0.,24.0,0.,24.0
1979-07-11 11:20:32.260 ,4,0,0.,24.0,0.,24.0,0.,24.0,0.,24.0
1979-07-11 11:20:56.260 ,3,1,0.,24.0,0.,24.0,0.,24.0,0.,24.0
1979-07-11 11:21:20.260 ,3,0,0.,24.0,0.,24.0,0.,24.0,0.,24.0
1979-07-11 11:21:44.260 ,3,0,0.,24.0,0.,24.0,0.,24.0,0.,24.0
1979-07-11 11:22:08.260 ,3,0,0.,24.0,0.,24.0,0.,24.0,0.,24.0
1979-07-11 11:22:32.260 ,3,0,0.,24.0,0.,24.0,0.,24.0,0.,24.0
1979-07-11 11:22:56.260 ,3,0,0.,24.0,0.,24.0,0.,24.0,0.,24.0
1979-07-11 11:23:20.260 ,2,1,0.,24.0,0.,24.0,0.,24.0,0.,24.0
1979-07-11 11:23:44.260 ,2,0,0.,24.0,0.,24.0,0.,24.0,0.,24.0
1979-07-11 11:24:08.260 ,2,0,0.,24.0,0.,24.0,0.,24.0,0.,24.0
1979-07-11 11:24:32.260 ,2,0,0.,24.0,0.,24.0,0.,24.0,0.,24.0
1979-07-11 11:24:56.260 ,2,0,0.,24.0,0.,24.0,0.,24.0,0.,24.0
1979-07-11 11:25:20.260 ,2,0,0.,24.0,0.,24.0,0.,24.0,0.,24.0
1979-07-11 11:25:44.260 ,1,1,0.,24.0,0.,24.0,0.,24.0,0.,24.0
1979-07-11 11:26:08.260 ,1,0,0.,24.0,0.,24.0,0.,24.0,0.,24.0
1979-07-11 11:26:32.260 ,1,0,0.,24.0,0.,24.0,0.,24.0,0.,24.0
1979-07-11 11:26:56.260 ,1,0,0.,24.0,0.,24.0,0.,24.0,0.,24.0
1979-07-11 11:27:20.260 ,1,0,0.,24.0,0.,24.0,0.,24.0,0.,24.0
1979-07-11 11:27:44.260 ,1,0,0.,24.0,0.,24.0,0.,24.0,0.,24.0
1979-07-11 11:28:08.260 ,0,1,0.,24.0,0.,24.0,0.,24.0,0.,24.0
1979-07-11 11:28:32.260 ,0,0,0.,24.0,0.,24.0,0.,24.0,0.,24.0
1979-07-11 11:28:56.260 ,0,0,0.,24.0,0.,24.0,0.,24.0,0.,24.0
1979-07-11 11:29:20.260 ,0,0,0.,24.0,0.,24.0,0.,24.0,0.,24.0
1979-07-11 11:29:44.260 ,0,0,0.,24.0,0.,24.0,0.,24.0,0.,24.0
1979-07-11 11:30:08.260 ,0,0,0.,24.0,0.,24.0,0.,24.0,0.,24.0
1979-07-11 11:30:32.260 ,0,1,0.,24.0,0.,24.0,0.,24.0,0.,24.0
1979-07-11 11:30:56.260 ,0,0,0.,24.0,0.,24.0,0.,24.0,0.,24.0
1979-07-11 11:31:20.260 ,0,0,0.,24.0,0.,24.0,0.,24.0,0.,24.0
1979-07-11 11:31:44.260 ,0,0,0.,24.0,0.,24.0,0.,24.0,0.,24.0
1979-07-11 11:32:08.260 ,0,0,0.,24.0,0.,24.0,0.,24.0,0.,24.0
1979-07-11 11:32:32.260 ,0,0,0.,24.0,0.,24.0,0.,24.0,0.,24.0
1979-07-11 11:32:56.260 ,1,1,0.,24.0,0.,24.0,0.,24.0,0.,24.0
1979-07-11 11:33:20.260 ,1,0,0.,24.0,0.,24.0,0.,24.0,0.,24.0
1979-07-11 11:33:44.260 ,1,0,0.,24.0,0.,24.0,0.,24.0,0.,24.0
1979-07-11 11:34:08.260 ,1,0,0.,24.0,0.,24.0,0.,24.0,0.,24.0
1979-07-11 11:34:32.260 ,1,0,0.,24.0,0.,24.0,0.,24.0,0.,24.0
1979-07-11 11:34:56.260 ,1,0,0.,24.0,0.,24.0,0.,24.0,0.,24.0